Weather WX

World > North America > United States > New Jersey

Ocean City, New Jersey Regional Weather

Lat: 39.28N, Lon: 74.58W
Wx Zone: NJZ024
Feedback

Ocean City, NJ Regional Weather

Expires:201906192200;;749822
ASUS41 KPHI 192111
RWRPHI

REGIONAL WEATHER ROUNDUP
NATIONAL WEATHER SERVICE MOUNT HOLLY NJ
500 PM EDT WED JUN 19 2019

NOTE:  "FAIR" INDICATES FEW OR NO CLOUDS BELOW 12,000 FEET WITH NO
SIGNIFICANT WEATHER AND/OR OBSTRUCTIONS TO VISIBILITY.

 * = STATION DOES NOT REPORT PRECIPITATION (E.G. RAIN, SNOW, ETC.) 
        OR FOG.


NJZ015>026-192200-
SOUTHERN NEW JERSEY
  
CITY           SKY/WX    TMP DP  RH WIND       PRES   REMARKS
POMONA         CLOUDY    76  70  82 SE13      29.76F                  
WILDWOOD*      FAIR      80  74  81 SE9       29.76F                  
MILLVILLE      FAIR      83  73  72 S8        29.74F                  
WRIGHTSTOWN    LGT RAIN  73  73 100 SE12      29.72F                  
MOUNT HOLLY    PTSUNNY   76  73  91 E5        29.73F                  
TRENTON        LGT RAIN  72  71  97 E9        29.76F FOG              

$$

SKY/WX - Weather  TMP - Temperature  DP - Dew Point  RH - Relative Humidity
WIND - Wind Direction/Speed PRES - Barometric Pressure VSB - Visibility
WCI - Wind Chill Index E13G22 Wind - East Wind 13 mph/Gusts of 22 mph